Погода в Уотаму

Кения     3°21′34″S   40°00′16″E
темп.,
°C
ветер,
м/с
пор.,
м/с
влажн.,
%
обл.,
%
осадки,
мм/ч
давл.,
гПа
погр.,
м
19 апреля, пн
пн1900:00+25ююз51088100 0.4 1013685
03:00+23юз41092100 0.7 1012557
06:00+22юз4995100 0.8 1013458
09:00+24ююз598596 3.4 1015563
12:00+28ююз687189 0.6 1013971
15:00+29ю7861100 0.7 10101049
18:00+25ююз5975100 0.0 1012609
21:00+24ююз4981100 0.0 1013478
20 апреля, вт
вт2000:00+23юз3983100 0.0 1013438
03:00+23ююз41084100 0.1 1011453
06:00+23ююз5108459 0.0 1012499
09:00+28ююз696752 0.0 1014829
12:00+31ю775582 0.0 10121211
15:00+30ю9106198 0.0 1009918
18:00+27ю8127729 0.0 1010821
21:00+26ю7118075 0.1 1012786
21 апреля, ср
ср2100:00+26ю6108342 0.3 1012681
03:00+25ююз6108171 0.4 1011716
06:00+24ююз5108499 0.0 1012519
09:00+28ююз6868100 0.1 1014859
12:00+31ю8859100 0.1 10121382
15:00+30ююв8863100 0.1 1010993
18:00+27ю6976100 0.0 1010642
21:00+26ю5980100 0.0 1012562
22 апреля, чт
чт2200:00+26ю6107912 0.0 1012674
03:00+26ююз51083100 0.1 1010613
06:00+25ююз41087100 0.1 1011500
09:00+29ююз686942 0.2 10141073
12:00+32ю8856100 0.2 10121435
15:00+30ююв8960100 0.3 1010975
18:00+27ююв61077100 0.0 1010661
21:00+27ююв6979100 0.0 1012701
23 апреля, пт
пт2300:00+27ю61080100 0.0 1011766
03:00+26ю4882100 0.0 1010505
06:00+25ююз368599 0.0 1011369
09:00+29ю6867100 0.3 10131158
12:00+31ю786064 1.3 10111251
15:00+30ююв786199 1.3 10091124
18:00+27ю5775100 0.0 1009734
21:00+26ю4780100 0.0 1011417